Wind_Speed
64 63 62 61 61 60 59 59 58 58 58 57 58 59 61 63 65 67 66 67 68 69 70 72 74 75 74 72 71 70 68 65 63 61 62 67 66 60 57 58 60 62 64 65 67 69 71 73 73 74 74 74 74 74 73 71 70 69 69 69 69 69 69 68 67 66 63 59 57 56 55 54 53 52 50 48 46 46 46 47 47 47 45 45 46 47 45 42
66 67 66 65 64 63 62 62 61 60 60 59 59 59 59 61 63 66 67 66 66 67 69 69 71 74 75 75 74 72 71 68 65 63 68 70 64 59 58 58 59 60 61 62 63 64 65 67 69 71 73 74 75 74 73 72 71 71 71 71 71 72 71 69 68 67 64 61 58 57 56 55 53 52 50 48 47 46 46 47 48 47 46 45 47 47 45 43
68 69 68 68 67 66 65 64 64 63 62 61 61 60 60 60 62 64 66 67 66 66 67 68 69 71 74 75 75 74 73 71 67 68 73 70 62 61 61 60 60 59 59 59 59 60 61 63 65 67 69 71 73 73 73 72 72 72 72 72 73 73 71 69 69 68 65 62 60 58 57 55 54 52 50 49 48 47 47 48 48 47 46 45 46 46 45 44
69 70 70 69 69 69 68 67 66 66 65 64 63 62 61 61 61 62 64 66 67 66 65 67 68 69 71 74 75 74 74 72 70 73 75 69 64 64 63 63 62 61 59 57 56 57 58 60 61 63 64 66 68 69 70 71 73 73 73 74 74 72 71 70 70 68 66 63 61 60 58 56 55 53 52 50 49 48 48 49 49 47 46 45 46 46 46 45
71 71 71 71 71 71 70 70 69 68 68 67 66 64 63 62 61 62 63 65 66 67 66 65 67 69 69 71 73 74 74 72 72 75 75 70 68 67 66 65 64 62 60 58 57 56 57 58 59 60 61 62 63 64 66 68 70 71 73 75 74 72 72 71 70 69 67 64 62 61 59 58 56 54 52 51 50 50 50 49 49 48 46 46 46 47 47 47
74 74 74 74 73 73 72 72 72 71 70 70 69 67 66 64 63 62 62 63 65 67 67 66 66 67 69 69 70 72 73 72 72 75 75 72 71 70 69 67 65 63 61 59 59 58 57 57 58 58 59 59 59 60 62 63 64 67 70 72 72 72 72 71 71 70 68 65 63 62 60 59 57 55 53 52 51 51 51 50 50 48 47 47 47 48 49 48
77 77 77 77 76 76 75 75 74 74 73 72 71 70 68 67 65 63 63 63 64 66 68 68 66 66 68 68 68 69 70 71 72 75 75 74 73 73 72 69 67 65 62 62 61 60 59 59 58 58 57 56 57 58 58 58 60 62 65 66 67 69 70 70 70 71 69 66 64 62 61 60 58 56 54 53 53 53 52 51 51 49 48 47 48 49 49 49
79 80 81 81 80 80 79 78 77 77 76 76 74 73 71 69 67 65 64 63 64 65 67 69 68 66 66 67 67 66 67 70 73 74 75 75 74 74 73 70 69 67 65 65 64 62 61 61 60 58 56 55 55 55 54 55 57 58 61 61 61 63 65 65 67 68 68 66 64 63 62 61 59 58 56 55 54 54 54 52 51 49 48 48 48 49 49 49
80 82 83 84 84 84 83 82 81 81 80 79 78 76 74 72 70 68 66 65 65 65 67 69 69 68 65 65 66 64 66 72 73 73 75 75 75 75 74 72 71 69 67 67 65 63 63 63 62 60 57 55 54 52 51 53 54 55 57 55 55 57 58 59 60 63 63 62 62 61 61 60 60 58 57 56 56 56 54 52 51 50 49 49 49 49 49 49
80 82 84 85 86 87 87 86 85 84 83 83 81 79 76 74 72 70 68 67 66 66 67 68 69 69 65 64 64 64 69 72 71 71 73 74 75 74 73 73 72 71 70 68 67 66 66 66 64 61 58 56 54 52 50 51 52 52 52 51 52 54 54 54 56 57 57 56 56 57 57 58 58 58 58 57 57 56 54 51 50 49 49 50 50 51 51 50
79 82 84 85 87 88 89 89 89 88 86 86 85 83 80 77 74 72 71 69 68 67 67 68 69 69 67 64 62 65 71 71 69 70 72 73 74 73 73 73 73 72 71 70 69 69 69 67 65 62 59 58 56 53 51 51 50 49 49 48 49 51 52 52 53 53 52 52 52 52 53 54 55 57 57 57 57 56 54 51 48 49 50 50 51 52 53 53
81 82 84 85 87 88 89 90 91 90 89 88 87 86 83 80 77 75 73 71 70 68 68 68 69 69 67 63 62 68 72 70 68 68 70 72 73 73 73 73 74 73 72 72 71 71 70 68 66 63 61 59 57 55 53 52 50 49 48 46 46 47 49 50 50 50 49 49 49 49 50 51 53 55 56 57 56 56 53 48 47 47 45 45 49 53 53 53
83 84 85 86 87 88 89 90 91 91 91 90 89 88 86 83 79 77 75 73 72 70 69 68 68 69 67 64 66 69 70 68 67 67 69 70 71 71 72 72 73 74 74 74 73 72 71 69 67 65 62 61 58 56 55 54 52 51 49 46 44 44 46 47 48 48 48 47 47 47 48 48 50 52 54 55 55 55 50 44 42 39 36 38 46 53 54 53
84 85 86 86 87 87 88 89 90 91 91 91 90 89 88 85 82 79 77 75 74 72 70 69 68 68 66 67 70 68 67 68 67 67 69 69 69 69 70 71 72 73 74 75 74 73 72 70 68 65 63 62 60 58 57 56 54 52 50 48 45 44 45 46 45 46 46 46 46 46 46 46 46 47 49 51 52 52 47 42 38 31 29 35 46 53 52 53
85 86 86 86 86 86 86 88 89 90 91 91 90 90 89 87 84 82 80 77 75 73 72 70 69 68 67 70 71 67 66 68 68 68 69 68 67 67 68 69 71 72 73 74 73 72 72 70 68 66 65 63 61 59 58 57 55 53 51 49 47 45 46 46 45 44 45 45 45 45 44 43 43 42 42 44 47 49 46 44 43 38 32 33 44 52 49 46
83 85 85 85 84 83 83 85 86 88 90 90 90 90 89 88 85 83 81 79 77 75 73 71 70 68 69 72 71 67 67 68 69 68 68 67 66 65 66 67 69 71 71 71 71 70 70 68 68 67 66 64 62 60 59 58 56 54 53 51 50 48 47 46 45 44 43 43 43 42 42 42 41 39 38 38 41 44 45 46 49 48 43 37 40 48 45 40
79 81 83 82 80 79 78 80 82 85 88 90 90 89 89 88 87 85 83 81 78 76 74 72 71 70 71 72 71 68 67 67 67 66 67 67 66 64 64 65 66 68 69 69 69 68 67 66 66 65 65 63 61 60 60 58 56 54 54 53 52 51 49 48 47 45 42 41 40 40 40 40 39 37 35 35 35 37 39 44 51 54 53 48 45 48 48 46
74 77 78 78 76 73 72 73 77 81 85 88 89 90 89 88 88 86 84 82 79 77 75 73 72 71 72 73 71 69 67 67 66 66 68 68 67 64 62 62 63 65 66 65 65 65 64 64 64 63 62 60 58 57 56 56 55 55 56 56 56 54 52 50 49 47 43 39 37 37 38 37 36 34 33 30 29 29 32 41 51 54 54 55 56 58 60 59
68 70 72 72 71 69 66 67 71 76 82 86 88 89 89 88 88 87 85 83 80 78 76 75 74 73 73 74 72 70 68 67 65 66 69 69 69 66 63 62 61 61 61 59 60 60 60 60 60 58 56 55 54 53 54 55 57 57 59 59 58 56 54 52 51 49 43 38 35 34 34 34 33 32 30 29 29 28 31 41 49 49 51 55 59 63 65 66
62 63 65 65 65 63 61 62 66 72 78 83 84 87 88 87 87 87 85 82 80 79 77 76 76 74 74 74 72 70 69 67 65 66 69 70 69 68 66 64 61 59 57 55 55 54 55 54 52 51 51 52 53 53 55 56 57 57 58 58 57 56 54 53 52 49 43 37 33 31 32 32 32 32 31 33 35 34 36 42 44 43 47 52 58 62 65 67
56 57 58 59 59 57 56 57 62 68 74 77 80 84 86 86 86 86 85 82 82 80 78 77 77 75 75 74 72 70 69 67 65 66 68 69 69 69 68 65 63 60 57 55 54 53 51 48 47 48 50 52 53 54 56 56 56 56 57 57 56 56 55 54 52 49 43 38 33 32 32 32 32 33 34 35 36 37 38 39 37 35 39 48 56 60 63 66
51 52 52 53 53 51 50 53 59 66 70 72 76 81 84 84 84 84 84 83 82 81 79 78 77 76 77 76 73 71 69 68 67 66 67 69 69 68 68 67 65 62 60 58 55 52 49 46 47 49 50 51 51 52 55 56 56 56 56 56 56 56 55 54 52 49 44 39 36 35 33 33 34 35 34 36 38 36 34 36 35 35 36 42 50 55 59 62
46 47 47 48 48 47 47 50 56 62 66 67 71 78 81 80 80 82 82 83 83 81 80 80 79 79 78 76 74 71 69 69 68 66 67 68 68 68 67 67 66 65 63 60 56 53 49 48 50 52 52 51 50 51 53 55 55 55 55 54 55 56 55 53 51 48 44 41 39 37 35 35 35 35 36 39 41 39 35 36 39 41 37 35 42 50 55 58
41 41 42 43 43 44 45 48 53 58 60 63 68 73 74 75 77 79 81 83 83 82 81 81 82 81 79 77 73 71 70 70 68 67 66 66 67 67 66 67 67 67 65 62 59 56 52 52 54 54 53 52 50 50 51 52 53 54 54 54 55 55 53 52 50 48 45 42 41 39 37 35 35 36 38 41 44 44 43 40 42 44 37 31 39 50 55 55
37 36 36 37 38 39 42 45 49 52 55 59 64 68 70 73 76 78 81 83 83 83 83 83 83 82 80 76 72 71 70 69 68 66 65 65 66 66 66 66 66 66 65 64 61 58 56 55 57 56 55 54 51 50 50 50 52 53 54 55 56 55 53 50 49 47 45 43 43 41 38 36 35 36 39 43 47 49 50 48 46 46 42 39 44 48 49 50
33 32 31 30 32 34 39 43 44 47 51 56 61 64 67 71 75 77 80 82 83 84 84 85 85 83 79 75 73 72 70 69 69 67 65 65 66 66 66 65 64 64 65 64 63 61 58 58 59 58 57 55 52 51 50 50 51 52 54 56 57 56 52 50 48 47 46 45 44 41 38 37 37 38 41 46 49 51 53 52 49 48 49 48 48 49 50 49
30 29 26 26 27 30 35 39 40 43 48 53 58 63 67 71 74 77 79 82 84 85 86 87 87 83 79 76 75 72 70 71 70 67 66 65 65 65 65 64 63 63 63 63 62 60 60 61 61 60 58 56 53 52 51 51 51 52 55 58 58 56 53 50 49 48 47 46 44 41 39 38 39 40 42 46 50 52 53 54 52 48 49 45 40 46 51 48
27 25 23 22 23 26 30 33 36 40 45 51 57 63 67 71 74 77 79 82 85 87 88 89 88 83 79 77 75 72 72 73 71 68 67 66 65 65 64 63 62 62 62 60 59 59 60 62 62 61 60 56 53 53 54 54 53 53 57 60 60 57 53 51 50 49 48 47 44 42 41 41 40 40 41 43 47 50 52 55 55 52 53 48 36 34 39 40
23 22 21 20 20 23 27 30 32 37 43 50 57 64 68 71 74 77 79 83 86 88 89 90 87 82 79 77 75 73 73 73 71 71 69 67 64 64 64 63 63 62 60 59 58 59 60 62 65 65 62 59 57 57 58 57 55 57 61 62 60 58 54 52 51 50 49 46 43 43 43 42 42 42 41 41 44 49 52 55 57 57 58 56 49 39 33 31
20 19 19 17 18 21 25 28 31 36 43 50 58 65 69 71 73 76 79 83 86 88 89 89 85 81 78 76 75 74 72 71 71 72 69 67 64 63 64 65 64 62 60 58 57 57 59 62 65 65 64 62 62 62 61 59 59 61 63 62 60 57 54 52 51 50 48 44 42 44 44 43 43 42 42 43 46 50 53 55 57 60 60 59 59 55 47 41
17 15 15 15 16 21 25 29 33 37 42 49 58 65 69 71 73 76 80 83 85 87 88 87 84 80 77 77 76 74 71 70 70 70 67 65 62 61 62 63 63 61 59 57 55 55 57 59 62 63 64 66 66 65 64 62 62 63 63 62 60 57 54 52 50 49 45 42 43 46 45 44 43 42 43 46 48 50 53 55 56 59 62 61 61 61 58 53
14 12 12 13 15 20 25 29 32 37 43 50 58 64 67 69 72 76 78 82 85 87 87 85 82 78 77 77 77 74 72 70 69 68 66 63 60 58 58 59 59 59 57 54 53 54 54 55 57 60 63 65 66 66 65 64 64 65 63 62 59 56 53 50 46 44 41 41 45 48 46 45 44 44 45 46 48 50 52 54 56 58 61 62 61 61 60 58
12 10 9 11 14 19 23 27 31 37 43 51 57 61 65 68 71 75 78 81 84 86 86 83 80 78 77 77 76 73 72 71 70 69 67 64 61 59 57 56 57 57 56 55 53 53 53 53 54 55 58 61 64 65 63 62 63 64 63 61 58 54 50 46 42 41 41 44 48 50 48 45 44 44 44 45 47 49 50 53 55 57 58 59 61 62 61 61
9 7 8 10 14 18 22 25 31 37 43 50 55 60 64 67 70 74 78 81 82 84 84 82 79 77 77 76 74 72 70 69 69 69 68 65 61 59 56 54 55 55 56 57 56 54 53 51 50 51 53 56 60 61 62 63 64 64 63 62 59 53 48 46 44 43 43 45 49 51 48 44 43 43 43 45 46 47 48 51 54 56 57 57 59 61 62 63
8 6 6 9 13 16 20 25 30 37 43 49 55 61 65 67 69 73 77 79 80 81 82 80 78 76 76 76 73 71 69 67 67 67 66 64 60 58 55 53 52 52 53 55 56 56 55 51 50 50 52 54 57 59 62 65 67 66 65 63 57 52 50 49 47 46 46 47 50 51 46 42 43 44 45 46 46 46 47 50 53 56 58 58 59 61 63 66
7 4 5 8 11 15 18 23 29 36 42 48 56 62 64 66 69 73 75 77 79 80 81 80 78 76 75 74 71 69 68 67 66 65 64 63 61 59 57 54 52 51 51 53 54 55 54 53 52 52 53 55 57 59 62 65 66 65 64 59 54 54 55 51 48 48 49 50 50 49 45 43 44 46 46 46 45 46 47 48 51 54 57 60 61 63 66 68
6 2 4 8 11 14 18 23 29 35 42 49 56 61 64 66 68 70 72 75 77 79 79 78 76 75 74 72 69 68 66 65 64 63 63 62 61 59 56 54 52 50 51 53 54 54 54 53 53 53 54 57 59 61 63 64 64 63 60 57 57 60 57 51 49 49 49 48 48 48 44 43 45 46 46 45 44 45 46 48 51 53 56 59 61 64 66 67
5 0 3 7 10 14 19 25 30 36 43 50 56 61 63 64 65 67 70 73 76 77 77 76 74 73 71 69 68 67 66 64 61 61 61 61 60 58 55 53 51 50 51 53 54 55 55 55 55 55 55 58 60 63 64 63 61 60 59 60 62 61 55 50 49 47 46 47 47 47 45 43 45 45 44 44 45 46 48 50 52 54 55 57 58 59 60 60
3 2 4 6 10 15 20 26 32 39 45 51 56 58 58 58 61 65 68 72 74 75 75 74 73 71 69 68 67 66 65 63 61 59 59 59 59 57 55 53 51 50 49 51 53 56 56 56 56 56 57 60 61 61 60 59 58 59 60 61 62 60 54 51 50 47 47 47 46 47 45 42 43 44 44 46 48 49 50 51 51 52 53 54 54 54 53 53
4 5 6 8 11 16 21 27 34 40 45 50 52 51 51 54 58 62 66 70 72 73 73 73 72 70 68 67 65 64 63 62 60 59 59 60 59 57 55 53 52 50 49 49 52 55 57 58 58 58 59 59 56 54 55 56 57 59 59 59 58 57 54 53 51 49 48 47 46 47 44 41 44 46 47 50 51 50 50 51 51 51 51 51 51 51 51 51
6 6 7 9 13 17 21 26 32 37 42 45 47 47 50 53 56 59 64 67 69 71 72 72 71 69 67 66 64 62 61 61 60 58 59 60 59 57 55 54 53 52 50 49 50 54 57 57 58 58 58 56 53 53 56 58 59 60 60 59 58 58 56 54 52 49 47 46 46 47 45 45 48 50 50 51 52 51 51 51 51 51 51 51 50 50 51 52
9 7 7 9 13 18 22 26 30 35 39 43 45 48 50 51 53 57 62 65 68 69 70 70 70 68 66 64 62 61 59 59 58 57 58 60 59 58 56 55 54 53 51 50 50 54 56 57 57 57 56 56 55 56 58 59 60 62 63 62 62 61 59 57 52 49 49 48 46 46 46 48 50 51 51 51 52 52 52 52 52 52 51 50 49 50 51 53
15 11 8 8 11 15 20 24 28 33 37 41 43 46 47 49 53 56 60 62 65 66 67 67 67 66 64 62 61 59 58 58 56 55 57 60 60 59 57 56 56 55 53 51 51 53 56 57 57 56 56 57 57 57 58 60 60 61 62 62 62 61 59 57 55 53 53 50 48 47 47 48 49 50 51 52 53 53 52 52 53 52 51 50 50 52 53 55
19 15 12 11 10 12 16 21 26 31 37 41 42 43 45 48 51 54 56 58 60 62 64 65 65 64 62 60 58 58 57 57 56 55 57 60 61 60 58 57 57 55 53 52 50 52 55 57 56 56 56 57 57 57 58 58 57 56 57 58 59 59 59 58 56 55 53 50 48 49 48 48 49 50 51 52 53 53 53 53 53 52 51 51 52 53 55 56
23 22 19 17 16 16 19 24 30 36 40 42 42 43 44 46 48 49 51 53 55 57 58 60 61 61 59 57 56 55 55 55 55 55 57 61 62 60 58 57 57 55 54 53 52 52 55 57 57 55 55 55 54 54 55 55 54 54 55 56 57 58 58 57 56 55 51 48 48 49 48 49 50 51 52 53 54 54 54 54 53 53 52 52 53 54 54 54
24 27 26 24 23 23 25 28 33 37 39 40 40 41 42 43 44 45 48 50 51 52 53 55 56 55 54 53 53 53 54 55 55 55 58 61 61 59 57 56 55 55 55 54 52 51 53 56 57 56 55 54 54 54 55 55 55 54 55 55 56 57 56 56 55 52 49 48 49 49 49 50 52 53 54 54 54 54 54 54 53 52 52 52 53 53 52 51
24 29 31 30 29 29 31 32 33 36 38 39 40 40 39 39 40 42 46 49 49 50 50 51 51 50 50 50 51 52 53 54 55 55 58 61 61 58 56 55 54 55 55 53 52 50 51 53 55 57 56 56 55 55 55 55 54 54 54 55 56 57 57 56 52 49 49 50 50 49 50 51 53 54 55 55 54 54 54 53 52 52 52 52 52 52 51 50
24 29 32 34 35 34 35 37 38 39 40 40 38 37 36 35 36 37 40 43 46 48 49 49 49 48 48 49 51 52 53 54 54 55 58 60 59 56 55 54 54 54 54 53 52 49 49 51 54 56 57 57 56 56 55 54 54 53 54 55 56 57 57 55 52 51 51 50 49 49 50 51 53 55 55 55 54 54 54 53 52 52 52 52 52 51 50 50
23 28 31 34 37 38 37 38 39 39 38 36 35 34 33 33 34 35 36 39 43 46 48 48 47 47 48 49 51 52 52 53 55 56 58 57 56 54 53 52 52 53 53 53 52 50 49 50 52 54 57 57 57 57 56 55 54 53 54 55 56 57 56 55 55 54 52 49 48 50 50 51 53 55 55 54 54 53 53 52 52 52 52 52 51 50 50 49
23 27 30 33 35 37 37 36 35 34 33 32 32 31 31 31 32 34 36 39 41 42 43 44 45 46 47 48 49 51 52 54 56 56 56 54 53 52 51 50 51 51 53 53 53 52 51 50 50 52 56 57 58 58 57 57 56 55 55 56 57 57 56 55 55 54 53 50 49 49 49 51 54 54 54 53 53 53 53 53 53 53 52 51 50 49 49 49
23 26 29 32 34 36 37 36 34 31 31 31 31 30 30 30 32 33 34 36 38 39 40 42 43 44 45 46 48 50 52 54 54 54 53 52 51 50 50 50 50 51 53 53 53 53 52 52 51 52 54 56 58 58 58 57 57 57 56 56 56 56 55 54 54 54 53 53 52 50 50 52 54 54 53 53 53 54 54 54 54 53 52 51 50 50 49 48
20 24 26 29 32 34 36 38 38 36 34 33 32 30 30 30 32 33 34 35 36 38 39 40 41 43 44 46 47 50 52 53 53 52 51 51 50 50 50 50 51 52 53 54 54 54 54 53 53 53 54 56 58 58 58 58 58 57 56 55 55 54 53 53 54 54 54 54 53 52 52 54 54 54 54 54 54 55 55 55 54 53 51 51 51 50 49 48
Wind_Direction
263 263 262 261 259 257 255 255 255 254 254 253 252 250 248 246 245 244 243 241 240 240 240 240 240 240 239 239 239 239 239 239 239 238 238 239 238 239 239 239 240 239 239 239 239 239 239 239 239 240 240 240 241 241 241 241 241 241 241 242 243 243 244 245 246 247 247 248 248 249 251 252 254 255 256 256 256 257 258 259 260 260 262 262 263 265 267 267
263 262 261 260 259 257 255 253 253 253 253 253 252 251 249 247 245 244 243 242 240 240 239 239 239 239 238 238 238 238 238 238 238 238 238 238 238 238 239 239 240 240 240 239 239 240 240 240 240 240 240 240 240 241 241 241 241 241 241 242 242 243 244 245 246 247 247 247 247 248 250 251 253 254 255 255 255 255 257 258 259 260 260 261 262 264 266 266
262 261 261 260 258 257 255 253 252 251 251 252 251 251 249 248 246 244 242 241 240 239 239 238 238 238 238 237 237 237 237 237 237 237 238 239 238 238 238 238 239 240 240 240 240 240 240 240 240 240 240 240 240 240 241 241 241 241 241 242 242 243 244 245 246 247 247 247 247 247 248 250 251 252 253 253 254 255 255 256 257 259 259 260 261 263 265 265
262 261 260 258 257 256 255 253 251 250 250 250 250 249 249 248 246 244 242 241 240 239 238 238 237 237 237 237 236 236 236 236 236 237 239 239 238 238 238 237 238 238 239 239 240 240 240 240 240 240 240 240 240 240 240 241 241 241 241 242 242 243 244 245 246 246 246 246 246 247 247 248 249 251 251 252 253 254 254 255 256 258 259 259 260 261 263 263
261 260 259 257 256 254 253 252 251 249 249 248 248 248 248 247 247 245 243 241 239 238 238 237 237 237 236 236 236 235 235 235 235 237 238 238 238 238 237 237 237 238 238 239 239 239 239 240 240 240 240 240 240 240 240 240 241 241 242 243 243 244 244 245 246 246 246 246 246 247 247 247 248 249 250 251 252 253 253 255 256 257 258 258 259 260 261 262
261 260 258 256 255 253 252 251 250 249 248 247 247 246 246 246 245 245 243 241 239 237 237 237 236 236 236 235 235 235 234 234 235 236 237 237 237 237 237 237 237 238 238 238 238 238 238 239 239 239 239 239 239 239 240 240 241 242 242 243 243 244 244 245 246 246 246 246 246 246 246 246 247 248 249 250 251 252 253 254 255 257 258 259 259 261 263 264
262 259 258 256 254 252 250 249 249 248 248 247 246 245 245 244 244 244 243 242 239 237 236 235 235 235 235 235 234 234 234 234 234 235 236 235 236 236 237 237 237 237 237 237 237 237 237 238 238 238 239 239 239 239 240 240 241 242 243 243 243 244 245 245 246 247 246 246 246 246 246 246 247 247 248 249 250 251 252 253 255 257 258 260 262 263 265 266
262 259 257 255 254 252 250 248 247 247 247 246 245 244 243 243 242 242 242 242 240 238 236 234 234 234 234 233 233 233 233 233 232 233 234 234 234 235 236 236 236 236 236 237 237 237 237 238 238 238 238 238 239 240 240 240 241 242 242 242 243 244 245 245 246 247 247 246 246 246 246 246 246 246 247 248 249 249 251 252 255 257 260 262 263 264 265 266
262 260 257 255 253 252 250 248 247 246 245 245 244 243 242 241 241 240 240 240 239 238 236 234 233 233 233 233 232 231 232 233 232 232 233 233 234 234 235 235 236 236 235 236 237 238 238 238 238 238 238 238 238 239 239 240 240 241 243 243 244 245 245 245 246 246 246 246 245 245 245 246 246 246 246 247 247 248 250 252 255 259 261 263 263 263 264 263
262 260 257 255 253 251 250 249 247 245 244 243 243 242 241 240 239 239 238 239 239 237 236 234 232 232 232 232 231 230 231 232 231 231 232 233 233 233 234 234 235 235 235 236 236 237 237 237 238 238 238 238 238 238 238 240 240 242 243 243 243 244 244 244 244 245 245 244 244 244 244 244 245 245 245 245 246 248 250 252 256 260 262 263 264 265 264 263
263 260 258 255 253 251 249 248 247 245 244 243 242 241 239 238 238 237 237 237 237 237 235 234 232 230 230 231 231 230 231 231 230 231 232 232 232 232 233 233 234 235 235 235 235 236 236 237 238 239 239 239 239 238 239 240 240 241 242 241 241 243 243 243 244 244 244 243 243 242 242 242 242 243 243 244 245 247 249 252 256 260 263 265 267 268 267 264
265 261 258 256 254 252 249 248 247 245 244 242 241 240 238 237 236 235 235 235 236 235 234 233 232 230 228 229 230 230 230 230 229 230 231 232 232 231 231 232 233 233 233 234 234 235 236 237 237 238 238 239 239 239 240 241 241 241 241 240 241 243 244 244 244 243 243 242 242 241 240 239 239 239 240 242 244 246 248 251 256 261 268 274 274 270 266 263
267 264 260 257 255 253 250 248 246 245 243 241 240 239 237 235 234 234 233 233 234 234 234 232 231 229 227 227 229 230 230 229 228 229 230 231 231 231 231 231 232 232 233 233 233 234 235 236 237 237 237 238 238 239 239 240 241 241 241 241 241 243 245 244 243 242 241 241 240 239 239 239 239 240 240 241 242 244 245 249 256 266 278 281 275 269 264 260
268 265 262 259 257 254 251 249 247 245 243 241 239 237 236 234 232 232 232 231 232 232 232 231 230 229 226 226 228 229 229 228 226 227 229 229 230 230 230 230 231 232 232 233 233 234 235 236 236 237 237 238 238 238 238 239 240 241 242 241 240 242 244 244 242 241 240 239 239 239 239 240 241 242 243 242 241 242 241 241 244 253 268 268 264 264 262 259
270 267 264 261 259 255 252 249 247 245 243 241 239 237 235 233 231 230 230 229 230 230 231 230 229 228 225 226 227 227 228 228 225 225 227 228 229 228 229 229 230 231 232 233 234 235 235 236 236 236 236 236 236 236 238 239 239 240 241 241 240 241 243 244 243 241 240 238 238 239 239 239 240 241 242 241 241 240 237 234 229 228 239 250 254 257 259 257
270 268 266 263 260 257 253 250 247 245 243 241 239 237 234 232 230 229 228 228 227 228 229 229 228 226 225 225 225 225 227 227 225 224 226 227 228 228 228 228 229 230 231 232 233 234 236 236 237 237 237 237 236 236 237 237 238 239 239 240 240 239 241 243 243 241 239 238 238 238 238 238 238 237 237 237 238 239 235 231 228 224 226 233 246 253 254 252
270 268 266 265 262 258 254 250 246 243 242 240 239 236 234 231 229 227 227 226 225 226 227 227 227 225 225 225 224 224 226 227 225 224 225 226 227 228 228 228 229 230 230 231 232 234 235 236 237 238 238 238 238 238 238 238 237 236 236 237 237 238 239 241 242 240 238 237 237 237 237 236 235 233 232 233 235 239 237 233 230 227 225 227 237 248 250 251
271 269 267 266 264 260 255 250 245 242 239 238 237 235 233 230 228 227 225 225 224 224 224 225 225 224 224 224 223 222 224 226 225 223 224 224 225 226 227 228 229 230 231 231 232 233 234 235 236 237 238 239 239 240 240 239 237 235 234 234 234 235 235 238 241 240 238 236 236 235 235 234 233 231 229 229 230 233 238 239 236 233 230 231 237 246 250 253
272 269 268 267 265 261 256 249 244 240 237 236 234 233 232 229 227 226 224 223 222 222 222 223 224 223 223 223 222 221 222 225 224 222 223 223 223 223 224 226 227 229 230 230 232 233 234 235 236 238 239 239 239 239 239 238 237 235 234 233 233 233 234 236 239 239 238 237 236 234 233 232 230 227 222 219 219 218 225 236 238 234 234 236 241 248 252 256
273 270 268 266 264 261 256 249 243 238 236 234 232 231 230 228 226 225 223 221 220 220 220 221 222 222 223 223 221 220 221 223 223 222 223 223 223 223 223 223 225 227 228 228 230 231 232 233 235 236 236 235 235 234 235 236 236 235 235 234 233 233 234 235 238 240 239 237 235 233 231 228 225 222 214 210 211 207 212 228 233 232 237 242 246 250 254 257
273 271 268 265 263 259 254 247 241 237 235 232 230 229 228 226 224 223 222 219 218 218 218 219 220 221 222 222 221 220 220 222 223 222 222 223 223 223 223 223 223 225 225 225 226 228 229 230 232 233 233 233 232 232 233 234 235 235 235 235 234 233 233 234 236 238 238 236 233 230 226 223 220 216 211 208 208 202 208 222 224 223 237 248 251 253 255 257
274 270 267 265 262 258 251 244 238 235 233 230 228 226 225 224 222 221 219 217 217 216 216 217 219 219 220 220 220 218 218 220 221 222 222 222 222 222 223 223 223 224 224 224 224 226 227 228 230 232 232 233 233 233 234 234 234 234 235 235 235 234 233 233 235 236 235 233 230 227 223 220 217 213 208 204 202 197 206 222 220 215 226 244 253 256 258 260
274 270 266 263 260 255 248 240 235 233 231 227 225 224 223 222 220 218 217 215 214 214 213 215 217 218 219 219 218 217 217 219 220 220 221 221 222 222 222 222 223 223 223 223 223 224 223 225 228 230 231 232 232 233 234 235 235 234 235 235 235 234 232 232 232 232 232 230 229 226 222 219 215 210 205 202 201 195 200 217 223 221 221 234 249 255 259 261
275 270 265 261 257 253 247 240 234 231 229 225 222 222 221 219 217 215 214 213 212 211 211 213 215 217 217 217 217 216 216 218 219 220 220 220 221 222 222 222 222 223 223 222 222 221 220 221 224 226 228 229 230 231 233 234 235 234 234 234 234 234 232 230 229 229 228 228 228 226 223 220 215 210 203 201 203 199 198 207 219 222 218 226 245 254 256 257
279 272 266 260 254 249 244 240 235 230 227 222 219 219 217 216 214 212 211 211 210 209 209 211 214 215 216 216 216 216 216 217 219 220 220 220 220 221 221 222 222 222 222 222 221 220 219 221 223 225 225 226 226 228 231 232 232 233 233 233 233 232 230 228 227 226 225 225 225 224 221 219 215 210 205 202 203 202 201 205 214 218 214 221 241 250 254 255
282 275 268 260 252 245 240 237 234 228 224 219 216 215 214 213 211 209 209 209 208 207 208 210 212 213 213 213 214 214 214 215 217 218 219 219 220 220 220 221 222 222 222 222 221 220 219 221 223 225 225 225 225 226 228 230 231 231 232 232 233 232 229 226 224 224 223 222 223 222 220 219 215 211 206 203 204 206 204 204 211 216 215 222 239 248 254 258
284 278 271 260 250 242 237 235 230 224 220 215 212 210 210 210 208 207 206 206 205 205 206 209 211 211 211 211 212 213 213 214 216 217 217 218 218 219 220 220 221 221 222 222 221 221 220 222 223 224 225 225 225 226 228 229 230 230 231 232 232 231 228 225 222 221 221 220 221 220 219 218 217 214 210 206 206 209 208 205 208 213 215 222 236 249 255 258
285 280 272 261 249 240 234 231 226 221 215 210 207 206 206 207 205 204 204 203 203 203 205 208 210 209 209 210 211 211 212 213 213 215 216 217 217 217 218 219 220 221 221 220 220 220 221 222 224 224 225 225 224 226 227 228 228 228 229 230 231 230 228 224 221 220 219 219 219 218 217 217 216 215 214 210 210 213 213 210 209 210 214 217 221 238 252 254
287 281 273 261 246 235 228 224 220 216 211 206 202 202 203 204 203 202 202 201 202 202 204 207 208 207 207 209 210 211 212 212 212 213 215 215 216 216 217 217 218 219 220 219 218 218 219 221 223 223 223 223 223 224 226 227 226 227 229 230 231 230 227 225 222 220 219 218 218 217 216 216 216 215 213 212 213 217 217 214 212 211 215 219 219 225 240 245
289 280 271 259 242 229 220 214 211 209 207 203 199 199 200 201 201 200 200 200 201 201 203 206 206 205 206 207 209 210 211 212 213 214 214 214 214 215 216 217 217 218 218 218 218 218 219 220 222 223 223 222 222 223 223 224 225 227 228 230 231 230 228 226 223 220 219 217 217 218 217 216 216 216 214 212 214 217 218 218 216 214 218 224 227 230 236 243
292 281 270 256 237 223 215 209 204 202 203 201 198 198 199 199 198 198 199 199 200 200 203 205 205 204 205 206 208 209 210 211 213 215 215 215 215 216 217 218 218 219 218 218 218 219 221 222 223 224 223 224 224 224 224 223 225 227 229 230 231 231 230 228 225 223 219 215 217 218 217 216 216 216 216 215 215 215 217 219 219 219 220 226 231 234 238 244
297 284 268 250 232 221 214 208 202 197 197 198 197 197 197 197 196 197 198 198 198 199 202 203 203 203 204 206 208 208 208 210 212 214 215 216 216 217 218 219 219 219 219 220 220 221 223 224 225 225 225 226 226 227 227 227 228 229 230 231 232 232 233 232 230 227 219 214 218 219 217 215 214 215 217 218 219 217 218 220 221 223 224 227 233 237 239 243
304 288 261 240 226 218 213 207 200 195 193 195 196 195 195 195 195 195 196 197 197 198 200 201 202 202 204 206 208 208 208 208 210 212 214 214 214 216 217 218 219 218 217 218 219 221 224 225 226 227 227 228 229 229 230 231 232 234 234 234 234 234 235 235 233 229 220 215 220 220 216 214 214 215 218 220 221 221 221 221 223 226 228 230 234 238 241 245
311 288 254 231 220 213 208 203 196 193 192 192 193 193 193 194 194 194 195 196 197 197 198 200 201 202 204 206 207 208 209 209 210 211 212 213 213 214 216 216 218 217 216 217 217 218 221 224 226 229 229 230 230 230 230 230 231 232 233 233 234 234 234 232 229 226 220 217 221 221 216 213 213 215 217 220 222 223 223 224 225 227 230 233 235 238 242 247
318 288 245 224 216 210 203 198 194 191 190 190 189 191 192 192 193 193 194 195 195 196 197 198 199 201 204 206 206 207 208 209 211 212 213 213 212 214 215 216 217 217 217 218 218 218 219 219 222 225 227 228 228 229 229 230 231 231 232 232 234 234 233 230 226 222 219 216 220 222 216 211 213 215 217 219 221 223 225 227 228 229 232 235 238 241 244 246
326 288 235 214 207 204 198 193 191 188 187 188 188 189 190 191 192 193 194 194 194 195 196 198 199 200 203 205 206 207 208 209 210 211 212 213 213 213 213 213 215 216 216 217 218 220 220 220 220 221 223 224 225 226 228 230 232 233 235 236 236 234 231 228 225 223 220 218 220 222 216 211 214 217 218 220 222 223 225 228 230 231 234 236 239 242 244 244
333 284 215 202 194 192 190 186 185 185 184 187 188 188 189 190 191 192 193 193 193 194 196 197 199 200 202 204 205 207 209 210 210 211 211 212 213 214 214 213 214 214 215 215 216 218 219 220 221 221 223 224 223 224 226 228 230 232 234 235 234 233 231 229 227 225 223 221 221 223 218 213 215 219 220 222 223 226 228 230 233 233 234 236 239 241 243 245
345 341 183 190 184 180 182 181 180 181 183 186 187 188 189 189 189 190 191 192 193 194 195 196 198 200 202 203 205 206 208 209 211 212 212 212 213 214 215 215 216 216 216 216 215 216 217 218 220 221 223 224 224 224 225 226 228 230 231 231 231 232 231 230 230 228 227 224 222 223 220 215 217 220 222 224 226 227 230 232 235 236 237 239 241 244 247 249
17 96 147 170 174 174 177 178 177 179 183 186 188 188 188 187 186 188 190 191 193 194 194 195 197 200 202 204 205 207 208 208 209 211 212 212 213 214 214 215 216 218 219 219 217 217 217 218 219 221 222 224 224 225 227 228 228 230 231 232 233 234 231 230 230 228 226 224 221 221 220 217 219 221 223 226 227 228 231 234 238 240 242 244 247 250 253 255
52 100 132 154 164 169 175 177 178 180 183 185 186 185 184 184 186 187 189 191 192 194 194 195 197 199 201 204 206 207 208 208 208 209 210 211 212 214 214 214 216 217 219 220 219 219 219 219 219 220 223 225 226 227 229 230 230 231 232 234 236 238 235 233 231 229 228 225 222 221 218 217 220 221 222 227 228 230 234 237 240 243 246 249 251 254 257 259
53 94 123 149 159 165 172 178 179 180 181 181 181 180 181 183 185 187 188 190 192 193 194 195 197 199 201 203 206 208 209 209 209 209 209 210 211 212 213 214 215 217 219 220 220 220 220 220 221 221 223 225 226 226 228 228 228 229 230 231 233 235 235 233 232 232 232 229 226 223 218 217 221 222 223 227 230 233 235 238 242 245 248 251 255 258 260 263
43 76 113 143 157 163 168 174 176 177 177 176 176 177 179 181 184 187 188 190 192 194 195 196 197 199 201 203 205 207 210 210 210 210 210 210 210 211 212 213 214 216 218 219 219 219 219 221 222 223 224 224 224 224 226 227 227 228 228 229 230 231 232 232 230 229 229 228 226 224 220 219 223 225 226 229 233 235 238 241 244 247 250 253 256 259 262 264
46 49 81 118 146 158 164 168 171 171 170 170 172 175 177 179 183 187 189 190 192 194 195 196 198 199 202 203 205 207 209 210 210 211 211 211 211 212 212 213 214 215 217 219 219 219 219 220 222 223 224 225 225 225 226 227 227 228 230 231 232 233 233 233 231 228 226 224 223 222 220 221 225 228 229 231 235 238 240 243 246 248 250 253 255 258 261 263
69 62 70 90 116 138 148 154 158 160 162 166 171 173 175 180 185 187 189 190 192 194 195 197 198 200 202 204 205 207 209 209 209 211 212 211 212 212 213 214 215 215 216 218 220 219 219 220 222 223 224 226 227 227 228 229 229 231 233 234 235 235 235 235 233 231 229 225 223 222 220 220 224 228 230 233 236 239 242 244 246 248 250 252 254 258 262 264
90 89 90 96 108 122 134 143 149 155 161 165 169 172 175 180 185 187 189 191 193 194 196 198 200 201 203 203 205 207 209 209 210 211 212 212 212 213 214 215 216 216 217 218 219 219 219 220 221 223 225 227 229 230 232 233 233 232 234 235 236 237 237 236 236 234 232 228 226 224 222 222 224 227 230 233 236 239 241 244 246 248 251 253 257 261 264 264
99 103 104 108 115 124 132 140 147 153 158 162 166 171 176 180 183 186 189 192 194 196 197 199 201 203 203 204 205 207 208 209 211 212 212 211 212 213 215 216 217 218 219 220 221 220 221 221 221 222 224 226 228 229 231 232 232 232 233 234 236 238 238 238 237 236 234 230 228 226 224 224 226 228 231 233 236 239 242 244 247 250 253 256 260 263 263 262
105 108 110 113 118 125 131 136 143 149 154 160 167 171 175 178 181 184 188 192 195 197 199 200 202 203 204 204 205 207 208 209 212 213 213 211 211 212 214 216 218 219 220 222 223 223 223 224 223 223 223 225 227 228 230 231 231 232 233 234 235 236 238 238 239 238 235 233 231 229 228 228 229 231 232 234 236 239 242 245 249 252 254 258 261 261 260 260
106 111 114 117 120 124 129 136 144 151 157 162 167 170 173 177 180 184 187 190 193 197 200 202 203 204 205 205 205 207 208 210 213 214 212 211 211 213 214 215 217 220 221 223 224 224 225 226 226 224 224 225 227 228 230 231 232 232 233 235 235 236 236 237 237 237 236 234 233 232 231 231 232 234 235 237 238 240 243 247 250 252 256 259 259 258 259 260
103 108 111 116 120 124 129 136 145 152 156 160 163 167 171 175 179 183 187 190 193 196 199 201 202 203 203 204 204 206 208 211 213 212 211 211 213 214 215 216 218 220 221 223 223 224 225 227 228 227 226 226 227 228 229 230 231 232 233 235 236 236 236 236 236 236 236 235 234 234 234 234 235 236 238 239 241 244 246 249 251 254 256 257 257 257 258 259
102 106 110 115 119 125 131 137 143 148 153 157 162 167 171 175 179 183 187 190 193 194 196 198 199 200 201 202 204 207 209 211 211 210 210 211 213 215 217 218 220 221 223 224 224 224 225 227 229 229 228 228 228 229 230 230 231 231 232 233 235 236 237 237 237 237 236 235 234 234 234 235 237 239 240 242 244 246 247 249 251 254 255 255 255 256 257 257
107 112 117 122 126 130 135 140 144 149 154 160 165 169 172 176 179 183 186 189 191 193 195 196 198 199 201 203 205 207 209 210 210 210 210 212 214 216 218 220 222 223 224 225 225 225 226 227 228 229 230 229 229 230 231 231 232 232 232 234 235 236 237 237 238 238 237 236 234 233 233 234 236 238 240 241 243 244 246 248 251 252 253 253 254 255 256 257
114 120 125 129 133 138 143 147 151 157 162 166 168 171 174 177 179 181 184 187 189 191 194 196 198 200 201 202 204 206 208 209 209 210 212 214 216 218 220 221 222 223 224 225 226 226 228 228 229 230 229 229 229 231 232 233 233 234 234 236 237 238 238 238 238 238 237 236 234 233 232 234 235 237 239 240 241 243 246 249 251 252 252 253 254 254 256 258
Height
10586 10585 10585 10585 10584 10585 10585 10585 10585 10586 10586 10587 10588 10589 10591 10593 10595 10598 10601 10605 10608 10612 10616 10620 10624 10628 10632 10635 10639 10643 10647 10652 10656 10661 10660 10652 10656 10668 10675 10676 10678 10680 10683 10687 10690 10693 10698 10703 10707 10710 10713 10716 10719 10723 10728 10733 10738 10739 10739 10740 10741 10743 10745 10750 10753 10757 10764 10771 10774 10776 10777 10779 10782 10785 10788 10792 10793 10793 10793 10791 10791 10792 10793 10794 10792 10791 10794 10797
10577 10576 10575 10575 10575 10575 10575 10576 10576 10576 10577 10578 10579 10581 10583 10585 10587 10589 10593 10596 10600 10604 10608 10612 10615 10619 10623 10627 10631 10635 10640 10645 10650 10656 10647 10642 10657 10667 10668 10671 10672 10674 10678 10682 10685 10689 10693 10697 10700 10703 10706 10709 10712 10717 10722 10727 10730 10731 10732 10733 10734 10736 10741 10747 10749 10752 10760 10767 10770 10773 10774 10776 10778 10781 10784 10787 10789 10789 10789 10788 10788 10789 10791 10791 10789 10789 10791 10793
10566 10565 10565 10565 10565 10565 10566 10566 10566 10567 10568 10569 10570 10572 10574 10576 10578 10581 10584 10588 10592 10596 10599 10603 10607 10611 10614 10618 10623 10627 10632 10637 10645 10644 10634 10641 10658 10660 10661 10665 10666 10669 10673 10676 10681 10685 10688 10690 10693 10695 10699 10702 10706 10711 10716 10720 10722 10723 10726 10726 10726 10731 10738 10743 10744 10748 10756 10762 10766 10769 10771 10773 10775 10777 10780 10782 10784 10786 10785 10784 10784 10786 10788 10788 10786 10786 10788 10789
10555 10555 10554 10555 10554 10555 10555 10556 10557 10557 10558 10559 10561 10563 10565 10567 10570 10573 10576 10580 10583 10587 10591 10595 10599 10602 10606 10610 10615 10620 10625 10631 10637 10632 10629 10643 10652 10651 10655 10658 10659 10664 10667 10672 10676 10679 10682 10684 10686 10689 10693 10696 10701 10705 10709 10712 10714 10717 10719 10718 10722 10730 10735 10737 10739 10744 10751 10757 10761 10764 10767 10769 10771 10773 10776 10778 10781 10782 10781 10781 10782 10783 10785 10785 10784 10784 10784 10785
10544 10543 10543 10543 10543 10544 10545 10545 10546 10547 10548 10549 10551 10553 10556 10559 10562 10564 10568 10571 10575 10579 10583 10586 10590 10594 10598 10602 10607 10612 10617 10624 10628 10623 10627 10639 10642 10644 10647 10650 10654 10658 10663 10668 10671 10674 10676 10678 10680 10683 10687 10691 10695 10698 10701 10704 10708 10711 10712 10713 10721 10726 10728 10732 10735 10738 10745 10752 10757 10760 10763 10765 10767 10770 10772 10774 10776 10776 10777 10778 10779 10781 10782 10783 10782 10781 10781 10782
10532 10531 10530 10531 10531 10532 10533 10534 10535 10536 10538 10538 10541 10543 10546 10549 10552 10556 10559 10562 10567 10570 10574 10578 10582 10586 10590 10595 10600 10604 10610 10617 10619 10616 10622 10630 10634 10637 10639 10644 10649 10653 10659 10663 10664 10668 10670 10672 10674 10677 10681 10685 10689 10692 10695 10699 10703 10705 10706 10711 10717 10719 10723 10727 10729 10732 10739 10748 10752 10755 10758 10761 10764 10766 10768 10770 10771 10772 10773 10775 10776 10778 10780 10780 10780 10778 10778 10779
10519 10518 10517 10517 10518 10519 10520 10522 10524 10525 10526 10528 10530 10533 10536 10540 10543 10547 10551 10554 10558 10561 10566 10569 10573 10578 10581 10587 10592 10597 10604 10609 10610 10609 10614 10622 10627 10629 10632 10639 10644 10648 10654 10655 10658 10661 10663 10665 10668 10671 10676 10681 10684 10686 10691 10696 10698 10699 10701 10707 10711 10714 10718 10722 10724 10727 10734 10743 10748 10750 10753 10757 10760 10763 10765 10766 10767 10767 10769 10771 10773 10775 10777 10778 10777 10776 10776 10777
10504 10504 10503 10503 10504 10505 10507 10509 10511 10513 10514 10516 10518 10522 10526 10529 10534 10538 10541 10545 10549 10552 10557 10560 10565 10569 10573 10580 10585 10592 10599 10597 10598 10601 10606 10614 10619 10621 10626 10633 10637 10642 10647 10648 10651 10654 10657 10660 10662 10667 10671 10676 10679 10682 10688 10691 10692 10693 10695 10702 10708 10709 10713 10717 10719 10722 10729 10737 10742 10745 10748 10752 10756 10759 10761 10763 10762 10762 10765 10768 10770 10773 10775 10775 10775 10774 10774 10775
10487 10487 10488 10489 10489 10490 10492 10495 10498 10500 10502 10503 10506 10511 10515 10519 10524 10528 10532 10536 10539 10544 10547 10552 10557 10561 10567 10573 10578 10587 10588 10582 10589 10596 10599 10606 10610 10614 10621 10627 10631 10635 10639 10641 10646 10650 10652 10653 10656 10661 10666 10672 10675 10679 10684 10685 10686 10689 10692 10700 10705 10705 10708 10712 10713 10716 10724 10731 10735 10739 10743 10747 10750 10754 10757 10759 10757 10758 10762 10766 10768 10771 10772 10772 10771 10770 10771 10772
10470 10470 10471 10472 10473 10475 10477 10479 10483 10485 10488 10490 10493 10498 10503 10509 10514 10518 10522 10526 10530 10535 10538 10543 10548 10553 10560 10566 10573 10580 10574 10573 10585 10591 10593 10599 10603 10609 10615 10620 10624 10628 10633 10636 10641 10643 10644 10645 10650 10657 10663 10668 10671 10676 10679 10679 10682 10686 10690 10697 10699 10699 10703 10706 10708 10712 10718 10724 10728 10734 10738 10741 10745 10749 10752 10753 10753 10756 10760 10764 10767 10769 10770 10770 10768 10767 10767 10768
10454 10454 10454 10455 10456 10458 10461 10463 10466 10470 10474 10477 10481 10485 10491 10498 10503 10508 10512 10516 10521 10525 10530 10535 10539 10546 10553 10559 10567 10568 10561 10568 10580 10582 10586 10591 10596 10603 10608 10612 10617 10621 10626 10630 10633 10635 10636 10641 10647 10653 10659 10663 10667 10672 10673 10674 10679 10682 10686 10692 10693 10694 10697 10700 10703 10708 10713 10718 10723 10728 10732 10736 10740 10743 10745 10748 10750 10753 10757 10762 10766 10767 10768 10768 10766 10764 10763 10763
10436 10436 10437 10438 10439 10441 10444 10447 10450 10454 10459 10463 10467 10472 10478 10485 10492 10497 10502 10507 10511 10516 10521 10526 10532 10538 10545 10554 10558 10553 10553 10564 10573 10577 10581 10583 10589 10595 10600 10604 10609 10614 10619 10621 10624 10627 10631 10637 10643 10648 10653 10657 10662 10666 10668 10671 10675 10678 10682 10686 10689 10691 10693 10696 10699 10704 10709 10713 10717 10722 10726 10729 10733 10736 10740 10743 10746 10749 10755 10761 10765 10766 10768 10767 10762 10757 10756 10756
10418 10418 10419 10420 10422 10424 10427 10431 10434 10437 10442 10448 10453 10458 10465 10473 10480 10485 10491 10497 10502 10507 10512 10518 10524 10530 10540 10547 10544 10542 10551 10560 10567 10571 10573 10576 10582 10588 10593 10597 10601 10606 10610 10613 10616 10621 10626 10632 10638 10643 10649 10653 10658 10662 10664 10666 10670 10674 10678 10682 10686 10687 10688 10690 10695 10699 10704 10708 10712 10717 10721 10725 10729 10732 10736 10740 10742 10746 10753 10760 10764 10768 10772 10769 10758 10749 10749 10749
10399 10399 10400 10401 10404 10407 10410 10414 10418 10421 10426 10433 10439 10445 10451 10459 10468 10473 10480 10486 10492 10498 10503 10510 10516 10523 10534 10535 10531 10539 10548 10552 10559 10563 10564 10569 10574 10580 10586 10590 10594 10598 10601 10605 10610 10616 10622 10627 10633 10639 10644 10648 10653 10657 10658 10661 10665 10670 10674 10678 10682 10683 10683 10685 10690 10694 10699 10704 10708 10712 10718 10722 10726 10730 10733 10737 10739 10742 10750 10758 10762 10767 10771 10769 10758 10746 10744 10744
10380 10380 10381 10383 10386 10389 10393 10397 10402 10406 10411 10417 10424 10430 10437 10447 10456 10462 10468 10475 10482 10489 10495 10502 10508 10517 10525 10523 10524 10536 10541 10543 10551 10554 10557 10563 10567 10573 10578 10582 10587 10590 10594 10600 10606 10612 10617 10623 10629 10634 10638 10642 10648 10652 10654 10657 10661 10666 10669 10673 10677 10679 10678 10680 10684 10690 10695 10700 10704 10709 10716 10719 10723 10726 10730 10733 10735 10738 10745 10751 10754 10758 10759 10758 10753 10743 10740 10740
10361 10360 10361 10364 10367 10372 10376 10380 10385 10390 10396 10402 10409 10416 10425 10434 10443 10450 10457 10464 10473 10480 10487 10494 10501 10509 10514 10513 10520 10530 10532 10535 10542 10548 10554 10558 10562 10567 10572 10576 10580 10583 10588 10595 10601 10607 10613 10619 10624 10628 10632 10637 10644 10647 10648 10652 10657 10661 10664 10667 10671 10674 10674 10675 10679 10685 10691 10697 10702 10707 10712 10715 10718 10722 10726 10729 10731 10733 10738 10742 10744 10745 10743 10743 10741 10737 10735 10736
10344 10342 10342 10345 10348 10353 10358 10364 10369 10375 10380 10386 10394 10402 10411 10421 10430 10438 10445 10453 10464 10471 10478 10486 10492 10500 10504 10506 10514 10522 10526 10529 10538 10546 10549 10552 10557 10562 10567 10571 10574 10577 10583 10590 10597 10603 10609 10615 10619 10623 10628 10634 10640 10642 10645 10649 10653 10656 10658 10661 10665 10668 10671 10671 10674 10680 10687 10693 10699 10703 10707 10710 10714 10719 10722 10725 10728 10731 10734 10736 10734 10732 10735 10737 10734 10730 10729 10731
10327 10325 10325 10327 10331 10335 10341 10347 10353 10359 10365 10371 10379 10387 10397 10407 10416 10426 10435 10443 10453 10462 10471 10478 10484 10492 10496 10499 10507 10515 10520 10524 10532 10539 10541 10546 10551 10556 10562 10565 10568 10573 10578 10587 10594 10598 10605 10609 10613 10618 10624 10630 10636 10639 10643 10644 10646 10649 10651 10653 10657 10661 10666 10668 10669 10676 10683 10690 10696 10700 10703 10707 10711 10715 10720 10725 10728 10730 10731 10729 10723 10725 10732 10734 10728 10723 10723 10725
10313 10311 10311 10312 10315 10319 10325 10332 10338 10344 10350 10355 10364 10372 10382 10394 10405 10414 10424 10434 10445 10454 10463 10470 10476 10483 10487 10491 10499 10507 10512 10517 10525 10531 10534 10538 10544 10550 10555 10559 10564 10569 10576 10585 10590 10595 10601 10605 10609 10616 10623 10628 10631 10634 10635 10634 10636 10641 10642 10645 10650 10656 10662 10665 10665 10671 10681 10688 10693 10697 10700 10703 10708 10712 10717 10723 10723 10724 10723 10718 10716 10722 10727 10726 10722 10719 10719 10719
10300 10299 10298 10298 10301 10305 10310 10317 10323 10329 10333 10339 10350 10359 10368 10382 10393 10403 10414 10427 10437 10444 10454 10461 10467 10475 10480 10484 10492 10500 10506 10512 10519 10524 10528 10533 10539 10544 10549 10555 10560 10566 10574 10581 10586 10591 10596 10601 10608 10614 10618 10620 10622 10624 10625 10625 10629 10634 10636 10640 10647 10653 10658 10662 10663 10669 10678 10685 10690 10694 10696 10700 10703 10707 10711 10714 10714 10713 10713 10709 10713 10722 10724 10722 10720 10717 10716 10716
10288 10287 10287 10287 10289 10292 10298 10304 10310 10314 10317 10326 10337 10347 10357 10369 10382 10393 10406 10419 10427 10435 10446 10453 10460 10468 10472 10477 10486 10494 10501 10507 10513 10518 10522 10527 10533 10539 10545 10552 10557 10563 10570 10576 10581 10586 10592 10600 10606 10607 10609 10610 10613 10616 10617 10619 10624 10628 10631 10636 10642 10648 10654 10658 10661 10667 10675 10681 10686 10688 10692 10695 10698 10701 10704 10707 10707 10708 10708 10709 10715 10723 10726 10723 10719 10716 10715 10713
10278 10277 10277 10277 10278 10281 10286 10291 10296 10299 10303 10314 10326 10335 10344 10356 10371 10385 10397 10409 10418 10428 10439 10445 10453 10459 10462 10469 10478 10487 10495 10501 10505 10511 10516 10521 10527 10534 10541 10548 10553 10559 10564 10570 10577 10584 10592 10599 10600 10600 10602 10604 10608 10611 10612 10614 10618 10622 10626 10631 10637 10642 10648 10654 10658 10664 10670 10676 10679 10683 10686 10689 10691 10696 10700 10702 10703 10704 10707 10710 10714 10721 10724 10722 10717 10714 10712 10710
10269 10268 10268 10268 10269 10271 10275 10279 10283 10286 10293 10304 10315 10323 10333 10348 10365 10377 10389 10400 10409 10419 10430 10437 10443 10448 10453 10462 10471 10481 10489 10493 10498 10504 10510 10516 10523 10529 10535 10542 10548 10553 10559 10567 10574 10580 10588 10593 10592 10593 10596 10599 10604 10606 10608 10611 10614 10618 10622 10626 10631 10635 10643 10650 10654 10659 10665 10670 10674 10678 10681 10684 10687 10692 10695 10697 10700 10702 10703 10706 10710 10714 10718 10719 10715 10710 10707 10706
10260 10260 10259 10260 10261 10263 10266 10270 10273 10277 10285 10296 10306 10315 10328 10344 10358 10368 10380 10390 10399 10411 10421 10427 10433 10439 10447 10455 10466 10476 10481 10486 10492 10499 10505 10511 10517 10523 10530 10535 10540 10546 10554 10562 10568 10575 10582 10584 10583 10585 10589 10593 10598 10601 10604 10607 10611 10614 10617 10621 10623 10629 10637 10645 10650 10655 10660 10665 10669 10673 10677 10680 10684 10688 10691 10693 10696 10698 10699 10701 10704 10708 10714 10717 10711 10703 10700 10701
10253 10252 10252 10253 10254 10256 10259 10262 10266 10272 10280 10289 10299 10310 10324 10337 10347 10358 10370 10380 10391 10403 10412 10418 10424 10431 10440 10451 10462 10469 10475 10483 10489 10495 10501 10507 10512 10518 10524 10529 10534 10542 10549 10556 10563 10569 10575 10577 10577 10579 10583 10588 10593 10597 10600 10602 10606 10608 10611 10614 10616 10622 10632 10640 10646 10650 10656 10660 10663 10667 10673 10677 10680 10683 10686 10688 10690 10693 10694 10696 10699 10703 10708 10708 10701 10693 10692 10695
10245 10244 10245 10246 10247 10250 10252 10255 10260 10267 10274 10283 10293 10306 10318 10329 10339 10350 10360 10371 10384 10395 10403 10409 10414 10422 10435 10448 10455 10461 10470 10477 10481 10488 10496 10501 10506 10513 10518 10524 10530 10537 10543 10549 10556 10563 10569 10571 10571 10574 10578 10583 10589 10592 10595 10597 10600 10603 10606 10606 10609 10616 10627 10635 10641 10645 10650 10654 10657 10664 10669 10673 10675 10678 10680 10682 10684 10686 10688 10692 10695 10696 10697 10695 10690 10686 10686 10688
10239 10238 10239 10240 10242 10244 10246 10249 10255 10260 10267 10277 10288 10300 10311 10320 10331 10342 10352 10364 10375 10386 10395 10400 10405 10418 10432 10440 10445 10455 10464 10468 10474 10483 10489 10494 10501 10507 10513 10520 10526 10531 10537 10544 10552 10559 10564 10565 10566 10570 10574 10580 10586 10589 10591 10592 10595 10599 10599 10598 10602 10610 10621 10629 10635 10640 10644 10648 10654 10661 10665 10668 10670 10672 10675 10677 10679 10680 10683 10687 10688 10688 10688 10686 10685 10682 10681 10683
10234 10234 10234 10235 10237 10239 10242 10246 10250 10256 10263 10272 10281 10293 10303 10312 10323 10333 10345 10357 10366 10376 10384 10388 10397 10413 10426 10432 10441 10450 10455 10460 10469 10477 10482 10488 10495 10502 10509 10516 10521 10526 10532 10539 10548 10554 10558 10560 10562 10565 10569 10576 10583 10584 10584 10585 10590 10592 10590 10590 10595 10604 10615 10623 10628 10634 10638 10644 10651 10657 10660 10662 10665 10668 10671 10675 10677 10677 10678 10680 10680 10680 10678 10678 10679 10678 10677 10678
10230 10230 10230 10232 10233 10235 10238 10242 10247 10252 10259 10266 10275 10286 10295 10305 10316 10326 10338 10349 10357 10367 10375 10381 10394 10410 10420 10428 10437 10443 10448 10456 10464 10468 10474 10483 10491 10498 10505 10510 10514 10520 10527 10534 10541 10545 10549 10552 10554 10558 10564 10571 10574 10574 10575 10579 10584 10583 10581 10584 10590 10598 10609 10617 10624 10629 10635 10642 10649 10652 10654 10657 10660 10663 10667 10671 10672 10670 10670 10673 10674 10674 10672 10673 10674 10673 10672 10673
10227 10228 10227 10228 10230 10231 10234 10238 10242 10248 10255 10262 10270 10279 10287 10297 10309 10321 10332 10341 10350 10362 10370 10378 10393 10406 10416 10424 10430 10437 10445 10454 10459 10463 10470 10479 10487 10493 10499 10503 10508 10515 10522 10530 10536 10540 10543 10545 10548 10553 10560 10563 10564 10565 10568 10573 10576 10574 10575 10580 10586 10594 10604 10612 10620 10625 10632 10641 10645 10646 10650 10653 10656 10659 10662 10664 10662 10663 10665 10667 10669 10670 10670 10670 10670 10669 10669 10670
10225 10226 10226 10226 10228 10229 10231 10234 10238 10243 10251 10259 10265 10272 10281 10292 10304 10315 10325 10335 10347 10359 10366 10377 10391 10403 10413 10419 10424 10432 10442 10450 10456 10462 10470 10479 10485 10491 10496 10501 10507 10514 10521 10528 10533 10537 10539 10542 10546 10551 10555 10556 10558 10560 10563 10567 10568 10568 10572 10577 10583 10591 10599 10608 10616 10623 10632 10639 10639 10641 10645 10649 10653 10655 10656 10656 10657 10659 10661 10663 10665 10666 10666 10665 10665 10666 10667 10667
10224 10225 10224 10225 10226 10227 10229 10232 10236 10241 10248 10255 10262 10269 10279 10291 10301 10311 10322 10333 10344 10354 10363 10376 10390 10401 10409 10413 10418 10428 10437 10445 10453 10460 10468 10477 10484 10491 10495 10501 10507 10514 10521 10527 10532 10534 10536 10540 10543 10547 10550 10552 10554 10557 10561 10565 10565 10566 10570 10575 10581 10589 10597 10606 10615 10623 10632 10634 10633 10636 10640 10644 10649 10650 10650 10652 10654 10657 10658 10659 10661 10662 10663 10663 10662 10662 10663 10664
10223 10223 10223 10223 10224 10226 10229 10232 10236 10240 10245 10252 10260 10269 10280 10290 10299 10309 10320 10330 10340 10351 10362 10375 10387 10397 10403 10409 10416 10425 10433 10440 10448 10455 10463 10471 10479 10485 10490 10497 10503 10510 10517 10522 10526 10530 10533 10537 10540 10543 10547 10549 10552 10556 10561 10565 10565 10566 10570 10574 10581 10589 10597 10606 10614 10621 10626 10627 10626 10629 10634 10640 10645 10646 10648 10650 10651 10653 10655 10657 10658 10658 10659 10660 10659 10659 10659 10658
10223 10223 10222 10222 10224 10225 10229 10232 10236 10240 10244 10251 10260 10270 10279 10287 10297 10307 10317 10327 10338 10350 10362 10373 10384 10393 10400 10406 10414 10424 10433 10440 10446 10452 10458 10466 10475 10481 10487 10494 10499 10505 10511 10515 10519 10523 10528 10533 10538 10541 10544 10547 10549 10554 10558 10559 10558 10560 10565 10569 10577 10587 10595 10601 10607 10613 10618 10621 10620 10622 10630 10638 10642 10644 10645 10645 10646 10650 10652 10653 10654 10655 10655 10654 10654 10654 10652 10651
10223 10222 10222 10223 10224 10226 10229 10232 10236 10240 10245 10252 10260 10269 10276 10286 10297 10306 10315 10326 10339 10351 10361 10371 10381 10390 10397 10403 10412 10421 10429 10437 10444 10451 10458 10466 10473 10479 10485 10491 10496 10502 10507 10511 10516 10519 10523 10528 10532 10534 10538 10540 10543 10547 10550 10549 10549 10554 10557 10564 10576 10585 10589 10593 10599 10605 10610 10613 10613 10617 10627 10635 10637 10638 10639 10640 10643 10646 10647 10648 10649 10649 10648 10648 10648 10647 10645 10644
10223 10222 10222 10223 10225 10227 10230 10233 10237 10241 10247 10253 10260 10267 10276 10285 10294 10303 10314 10326 10339 10349 10359 10368 10377 10386 10393 10402 10413 10421 10428 10434 10441 10449 10457 10464 10470 10474 10480 10486 10492 10498 10503 10507 10512 10516 10520 10524 10525 10527 10530 10532 10535 10539 10542 10543 10546 10551 10556 10567 10577 10578 10579 10587 10594 10599 10602 10606 10609 10615 10624 10630 10631 10632 10634 10637 10639 10641 10642 10642 10642 10642 10642 10641 10640 10639 10638 10639
10224 10223 10223 10224 10226 10228 10231 10235 10239 10244 10249 10254 10260 10268 10276 10284 10294 10305 10317 10328 10338 10348 10357 10367 10377 10384 10392 10402 10412 10420 10427 10434 10440 10447 10454 10461 10467 10472 10478 10483 10488 10493 10497 10501 10505 10509 10514 10517 10520 10522 10524 10525 10528 10531 10533 10536 10541 10548 10557 10566 10567 10565 10572 10584 10589 10593 10598 10604 10609 10613 10620 10625 10626 10627 10630 10633 10634 10635 10636 10635 10634 10634 10634 10634 10633 10633 10634 10638
10225 10224 10224 10226 10227 10230 10233 10236 10240 10245 10250 10255 10261 10268 10275 10285 10297 10308 10318 10329 10339 10347 10357 10368 10377 10385 10393 10402 10410 10417 10425 10433 10440 10447 10453 10459 10465 10470 10476 10481 10486 10490 10493 10496 10500 10503 10507 10510 10513 10516 10517 10519 10521 10523 10527 10533 10540 10548 10553 10555 10554 10558 10572 10582 10586 10592 10597 10602 10607 10610 10615 10621 10622 10624 10627 10627 10627 10628 10627 10626 10626 10626 10627 10628 10629 10630 10633 10637
10226 10226 10226 10227 10229 10232 10234 10237 10241 10245 10250 10255 10261 10268 10278 10291 10302 10311 10321 10330 10339 10348 10359 10368 10376 10385 10393 10401 10408 10415 10423 10430 10437 10444 10451 10457 10463 10467 10473 10478 10483 10487 10490 10493 10497 10499 10502 10505 10507 10510 10511 10511 10515 10521 10528 10536 10541 10544 10546 10548 10550 10558 10570 10577 10581 10588 10592 10597 10603 10606 10611 10617 10619 10620 10620 10618 10618 10619 10619 10620 10620 10621 10623 10624 10625 10628 10630 10632
10228 10228 10228 10229 10231 10234 10236 10239 10242 10245 10250 10257 10265 10276 10287 10297 10306 10314 10323 10332 10340 10350 10360 10368 10376 10384 10392 10399 10407 10414 10421 10428 10434 10441 10447 10453 10458 10464 10469 10474 10478 10482 10486 10489 10492 10495 10497 10499 10502 10504 10506 10509 10517 10525 10530 10534 10538 10540 10543 10548 10551 10557 10566 10572 10576 10582 10587 10593 10598 10601 10607 10612 10611 10611 10611 10609 10610 10613 10614 10615 10616 10617 10618 10619 10621 10624 10625 10627
10232 10230 10231 10232 10234 10236 10239 10242 10245 10250 10255 10263 10273 10284 10294 10301 10309 10317 10326 10334 10343 10351 10358 10366 10375 10383 10390 10398 10406 10413 10420 10426 10432 10438 10443 10448 10454 10460 10465 10470 10474 10478 10481 10485 10489 10491 10493 10496 10498 10501 10505 10511 10519 10522 10522 10525 10530 10533 10537 10542 10545 10550 10557 10563 10571 10579 10584 10589 10593 10597 10603 10604 10602 10603 10604 10604 10606 10608 10609 10610 10612 10613 10614 10616 10618 10620 10621 10622
10236 10234 10234 10236 10237 10239 10242 10245 10249 10255 10262 10270 10280 10289 10297 10305 10314 10321 10328 10335 10343 10350 10358 10367 10374 10382 10389 10397 10405 10412 10419 10425 10431 10437 10441 10446 10451 10456 10461 10465 10469 10472 10477 10480 10483 10486 10489 10491 10495 10499 10504 10508 10511 10513 10514 10518 10522 10525 10529 10533 10536 10541 10548 10556 10566 10574 10577 10582 10588 10593 10597 10598 10597 10598 10600 10601 10601 10603 10605 10606 10607 10609 10611 10613 10614 10615 10616 10616
10239 10240 10240 10240 10242 10244 10246 10250 10254 10261 10269 10278 10286 10294 10302 10310 10317 10322 10328 10335 10343 10351 10360 10368 10375 10383 10390 10397 10404 10410 10416 10422 10429 10434 10438 10443 10447 10451 10456 10460 10463 10468 10472 10476 10479 10482 10484 10487 10491 10496 10500 10502 10504 10508 10509 10512 10516 10521 10525 10529 10533 10539 10545 10552 10559 10564 10567 10575 10581 10586 10590 10593 10593 10594 10595 10596 10596 10598 10600 10601 10602 10605 10607 10609 10610 10610 10609 10609
10242 10244 10245 10246 10248 10251 10253 10257 10263 10270 10277 10285 10292 10300 10307 10313 10318 10323 10330 10338 10346 10353 10361 10369 10376 10383 10390 10397 10403 10409 10414 10420 10425 10430 10434 10438 10442 10447 10452 10455 10459 10464 10469 10472 10476 10479 10481 10484 10488 10492 10496 10498 10501 10505 10506 10510 10516 10521 10525 10529 10533 10537 10541 10546 10552 10556 10563 10571 10577 10579 10584 10586 10587 10588 10589 10590 10591 10593 10594 10595 10597 10599 10602 10603 10604 10604 10604 10604
10244 10245 10248 10250 10253 10257 10260 10264 10269 10275 10282 10289 10297 10304 10311 10316 10322 10328 10335 10343 10350 10357 10364 10370 10376 10383 10389 10396 10402 10407 10412 10417 10422 10426 10429 10433 10437 10443 10448 10452 10456 10461 10465 10467 10471 10475 10477 10480 10484 10489 10493 10496 10501 10505 10507 10510 10516 10519 10522 10526 10529 10532 10537 10542 10546 10552 10561 10569 10572 10575 10579 10581 10581 10582 10583 10584 10586 10587 10588 10590 10592 10594 10596 10598 10599 10599 10599 10600
10250 10249 10250 10253 10257 10261 10265 10270 10275 10281 10288 10296 10303 10309 10315 10320 10325 10332 10339 10346 10352 10359 10365 10371 10377 10383 10389 10395 10400 10405 10409 10413 10417 10421 10424 10428 10434 10440 10446 10450 10454 10458 10461 10464 10469 10472 10475 10477 10482 10486 10490 10493 10496 10499 10501 10505 10509 10514 10518 10522 10525 10528 10532 10536 10541 10550 10558 10563 10565 10570 10574 10574 10575 10575 10576 10578 10580 10582 10584 10585 10588 10590 10592 10593 10593 10594 10595 10596
10257 10255 10254 10256 10260 10265 10269 10275 10283 10289 10296 10302 10308 10313 10318 10324 10330 10336 10341 10347 10353 10359 10365 10371 10377 10383 10389 10394 10398 10402 10406 10409 10412 10416 10420 10424 10430 10437 10443 10447 10451 10455 10458 10462 10466 10470 10473 10476 10480 10483 10486 10488 10491 10494 10497 10500 10505 10510 10513 10517 10520 10523 10526 10531 10539 10548 10553 10555 10560 10565 10567 10568 10569 10569 10570 10572 10575 10577 10579 10581 10583 10586 10587 10588 10588 10589 10590 10590
10264 10262 10262 10262 10265 10271 10276 10281 10287 10294 10299 10305 10311 10316 10322 10328 10334 10339 10344 10349 10354 10359 10364 10370 10375 10381 10386 10391 10395 10399 10402 10405 10409 10413 10417 10422 10429 10435 10440 10444 10448 10452 10456 10459 10463 10468 10471 10473 10475 10479 10482 10485 10488 10490 10494 10497 10501 10506 10509 10512 10515 10518 10522 10528 10536 10541 10545 10550 10555 10558 10560 10562 10562 10563 10565 10567 10570 10572 10574 10577 10579 10581 10581 10582 10583 10583 10584 10584
10273 10272 10272 10272 10273 10277 10282 10287 10293 10298 10303 10309 10315 10320 10326 10331 10336 10341 10345 10350 10354 10358 10363 10368 10373 10378 10383 10388 10392 10396 10399 10402 10405 10409 10414 10421 10428 10433 10437 10442 10445 10449 10452 10456 10459 10464 10466 10468 10471 10475 10478 10481 10484 10486 10490 10493 10497 10501 10504 10507 10510 10513 10518 10524 10529 10534 10539 10545 10550 10552 10554 10556 10556 10558 10560 10562 10565 10568 10570 10572 10574 10575 10575 10576 10577 10577 10578 10578
10281 10280 10281 10281 10282 10285 10289 10294 10300 10305 10310 10315 10319 10324 10328 10333 10337 10341 10345 10349 10353 10357 10362 10367 10372 10376 10381 10385 10389 10393 10396 10398 10401 10407 10414 10420 10426 10431 10435 10439 10442 10446 10449 10452 10456 10459 10462 10464 10468 10471 10473 10476 10480 10482 10486 10489 10492 10496 10499 10502 10504 10509 10514 10520 10525 10529 10535 10540 10543 10546 10549 10550 10551 10553 10556 10558 10561 10563 10565 10567 10568 10568 10569 10570 10571 10572 10572 10573
10288 10288 10287 10288 10289 10291 10295 10300 10305 10311 10315 10319 10322 10326 10330 10333 10337 10341 10345 10349 10353 10358 10363 10367 10371 10376 10380 10384 10388 10391 10393 10395 10400 10407 10413 10418 10423 10428 10432 10435 10439 10442 10444 10448 10451 10455 10457 10460 10463 10465 10468 10472 10475 10478 10481 10484 10487 10491 10494 10497 10500 10505 10511 10516 10521 10526 10530 10534 10537 10540 10543 10544 10545 10547 10550 10553 10555 10557 10558 10560 10561 10562 10563 10564 10565 10566 10567 10567
10294 10294 10294 10294 10295 10297 10299 10302 10306 10311 10315 10319 10323 10327 10330 10334 10337 10341 10345 10350 10354 10358 10362 10367 10371 10375 10379 10383 10386 10389 10391 10394 10400 10406 10411 10415 10420 10424 10427 10431 10434 10436 10439 10443 10446 10450 10453 10456 10458 10460 10463 10467 10470 10473 10476 10479 10482 10486 10491 10495 10498 10502 10507 10511 10515 10520 10524 10528 10532 10536 10537 10537 10539 10542 10545 10547 10549 10550 10552 10553 10554 10556 10558 10559 10560 10560 10561 10562